Weather observations for the past three days for
New Orleans Naval Air Station - Alvin Callender Field
Imperial (Metric)
Date Time (cdt) Wind (mph) Vis. (mi.) Weather Sky Cond. Temperature (ºF) Relative Humidity Wind Chill (°F) Heat Index (°F) Pressure Precipitation (in)
Air Dwpt 6 hour altimeter (in) sea level (mb) 1 hr 3 hr 6 hr
Max. Min.
20 20:55 S 6 10.00 A Few Clouds FEW100 80.1 73.9 82% 85 30.03 1016.8
20 19:55 S 9 10.00 Fair CLR 82.9 73.9 74% 89 30.03 1016.7
20 18:55 SW 6 10.00 Thunderstorm FEW065 FEW095 88 78.1 90 80.1 73% 102 30.02 1016.5
20 17:55 SW 6 10.00 Thunderstorm CLR 88 77 70% 100 30 1015.8
20 16:55 SW 3 10.00 Mostly Cloudy FEW020 SCT090 BKN250 87.1 77 72% 99 29.99 1015.6
20 15:55 W 6 10.00 Mostly Cloudy FEW020 SCT080 BKN250 88 77 70% 100 30.02 1016.4
20 14:55 W 5 10.00 Mostly Cloudy FEW020 SCT080 BKN250 87.1 75.9 70% 98 30.03 1016.9
20 13:55 S 8 10.00 Light Rain FEW020 BKN065 BKN250 81 75 82% 87 30.06 1017.8
20 12:55 NW 14 G 24 10.00 Thunderstorm FEW019CB BKN021 BKN250 82.9 73 89.1 77 72% 89 30.05 1017.5
20 11:55 SW 3 10.00 Mostly Cloudy SCT015 BKN100 BKN250 88 80.1 77% 105 30.05 1017.4
20 10:55 S 9 10.00 Mostly Cloudy FEW014 SCT020 BKN250 84 79 85% 96 30.06 1017.7
20 09:55 SW 6 10.00 Mostly Cloudy FEW015 SCT090 BKN250 84.9 79 82% 98 30.05 1017.4
20 08:55 SW 6 10.00 Thunderstorm FEW015CB FEW020 BKN250 84 80.1 88% 97 30.05 1017.4
20 07:55 Calm 10.00 Mostly Cloudy FEW020 SCT200 BKN250 82 79 90% 92 30.03 1016.8
20 06:55 Calm 10.00 Mostly Cloudy FEW021 BKN250 77 75.9 81 75.9 96% 78 30.01 1016.0
20 05:55 W 3 10.00 Fair CLR 77 75.9 96% 78 29.99 1015.6
20 04:55 SW 3 10.00 Fair CLR 79 75.9 90% 83 29.98 1015.2
20 03:55 S 3 10.00 Fair CLR 77 75.9 96% 78 29.99 1015.4
20 02:55 SW 5 10.00 Fair CLR 78.1 77 97% 81 29.98 1015.2
20 01:55 Calm 10.00 Fair CLR 77 75.9 96% 78 30 1015.6
20 00:55 S 6 10.00 Fair CLR 81 77 82.9 77 88% 88 30 1015.8
19 23:55 S 3 10.00 Fair CLR 79 77 94% 83 30.02 1016.3
19 22:55 SE 6 10.00 Mostly Cloudy FEW020 SCT150 BKN250 80.1 78.1 94% 86 30.01 1016.1
19 21:55 Calm 10.00 Mostly Cloudy FEW020 SCT150 BKN250 79 77 94% 83 30 1015.8
19 20:55 SE 7 10.00 Mostly Cloudy FEW020 BKN150 BKN250 81 77 88% 88 29.98 1015.3
19 19:55 S 7 10.00 Mostly Cloudy FEW020 BKN250 82 75.9 82% 89 29.96 1014.6
19 18:55 S 8 10.00 Mostly Cloudy FEW020 BKN150 BKN250 82.9 77 82.9 77 82% 92 29.98 1015.1
19 17:55 S 8 10.00 Mostly Cloudy FEW025 BKN150 BKN250 82 77 85% 90 29.97 1014.7
19 16:55 SE 9 10.00 Overcast SCT025 BKN100 OVC150 82 75.9 82% 89 29.99 1015.3
19 15:55 SE 8 10.00 Overcast SCT025 BKN100 OVC150 82 75.9 82% 89 29.99 1015.5
19 14:55 SE 5 10.00 Overcast FEW020 BKN100 OVC150 82 75.9 82% 89 30.01 1016.2
19 13:55 E 5 10.00 Overcast FEW020 BKN100 OVC150 78.1 73.9 87% 81 30.04 1017.2
19 12:55 NE 10 5.00 Light Rain Fog/Mist SCT024CB BKN070 OVC150 78.1 73.9 88 75 87% 81 30.05 1017.4
19 11:55 S 8 1.00 Thunderstorm Rain Fog/Mist BKN025CB OVC070 84 75 74% 92 30.03 1016.7
19 10:55 S 3 10.00 Mostly Cloudy SCT020 BKN035 BKN070 BKN250 88 77 70% 100 30.02 1016.6
19 09:55 SW 5 10.00 Mostly Cloudy SCT016 BKN030 BKN075 BKN250 87.1 78.1 75% 100 30.03 1016.7
19 08:55 Calm 10.00 Mostly Cloudy SCT020 BKN075 BKN250 84 79 85% 96 30.03 1016.7
19 07:55 NE 3 10.00 Mostly Cloudy SCT025 BKN200 82 79 90% 92 30.01 1016.2
19 06:55 Calm 7.00 Mostly Cloudy SCT025 BKN250 77 75.9 77 75 96% 78 30 1015.9
19 05:55 Calm 4.00 Fog/Mist SCT025 SCT250 75.9 75 97% 75 29.99 1015.4
19 04:55 Calm 1.00 Fair CLR 75 75 100% 72 29.99 1015.3
19 03:55 Calm 4.00 Fair CLR 75 73.9 96% 73 29.99 1015.4
19 02:55 Calm 10.00 Fair CLR 75 73.9 96% 73 29.99 1015.6
19 01:55 Calm 10.00 Fair CLR 75 73.9 96% 73 30.01 1016.0
19 00:55 Calm 10.00 Fair CLR 75 73.9 80.1 75 96% 73 30 1015.8
18 23:55 Calm 10.00 Fair CLR 75.9 75 97% 75 30.01 1016.1
18 22:55 Calm 10.00 Mostly Cloudy FEW025 BKN250 75.9 75 97% 75 30.01 1016.1
18 21:55 Calm 10.00 Mostly Cloudy FEW020 BKN250 77 75 94% 78 30 1015.9
18 20:55 N 3 10.00 Mostly Cloudy BKN250 77 75.9 96% 78 29.99 1015.5
18 19:55 Calm 10.00 Mostly Cloudy BKN130 BKN250 78.1 75 90% 81 29.98 1015.2
18 18:55 SE 5 10.00 Mostly Cloudy BKN100 BKN250 80.1 73.9 87.1 75.9 82% 85 29.99 1015.3 0.06
18 17:55 Calm 10.00 Mostly Cloudy BKN100 BKN250 79 73.9 85% 83 30 1015.7
18 16:55 N 6 7.00 Overcast SCT020 BKN030 OVC060 79 75 88% 83 30.02 1016.4 0.04
18 15:55 Calm 6.00 Light Rain Fog/Mist SCT025CB OVC080 77 73 88% 78 30.05 1017.4 0.02 0.02
18 14:55 Vrbl 3 6.00 Thunderstorm Light Rain Fog/Mist BKN025CB BKN050 OVC140 78.1 71.1 79% 80 30.06 1017.7
18 13:55 S 10 10.00 Thunderstorm BKN024CB BKN035 BKN250 84.9 77 77% 95 30.03 1016.8
18 12:55 E 12 10.00 Thunderstorm SCT024CB BKN030 BKN250 86 79 90 78.1 80% 100 30.03 1016.6
18 11:55 E 6 10.00 Mostly Cloudy SCT024 BKN030 BKN250 88 75.9 68% 99 30.04 1017.1
18 10:55 Calm 10.00 Mostly Cloudy BKN022 BKN030 BKN250 88 78.1 73% 102 30.04 1017.3
18 09:55 E 5 10.00 Mostly Cloudy SCT019 BKN030 BKN250 86 79 80% 100 30.05 1017.4
18 08:55 NE 5 10.00 Partly Cloudy SCT030 SCT250 86 80.1 83% 101 30.04 1017.3
18 07:55 N 5 10.00 Mostly Cloudy SCT025 SCT035 BKN250 82.9 79 88% 94 30.04 1017.0
18 06:55 N 3 10.00 Partly Cloudy SCT025 SCT250 78.1 77 97% 81 30.02 1016.5
18 05:55 Calm 10.00 Partly Cloudy SCT030 SCT250 75 73.9 96% 73 30.02 1016.4
18 04:55 Calm 8.00 Fair CLR 0 0 0% 30.01 1016.3
18 03:55 Calm 10.00 Fair CLR 75.9 73.9 94% 75 29.99 1015.3
18 02:55 Calm 10.00 Fair CLR 75 73.9 96% 73 29.98 1015.2
18 01:55 NW 3 9.00 Fair CLR 75 73.9 96% 73 29.99 1015.5
18 00:55 Calm 10.00 Fair CLR 77 75 80.1 75.9 94% 78 30.01 1016.3
17 23:55 W 3 10.00 Fair CLR 78.1 75.9 93% 81 30.03 1016.8
17 22:55 S 7 10.00 Mostly Cloudy FEW050 SCT120 BKN250 77 75.9 96% 78 30.04 1017.2
Date Time (cdt) Wind (mph) Vis. (mi.) Weather Sky Cond. Air Dwpt Max. Min. Relative Humidity Wind Chill (°F) Heat Index (°F) altimeter (in) sea level (mb) 1 hr 3 hr 6 hr
6 hour
Temperature (ºF) Pressure Precipitation (in)